Ketchikan, AK

6:34 AM AKDT on July 22, 2018 (GMT -0800)
Ketchikan International

Weather History for PAKT - December, 2017

Change the Weather History Date:

Wednesday, December 6, 2017

  Actual Average Record
Temperature  
Mean Temperature 41 °F -  
Max Temperature 45 °F 41 °F 55 °F (1959)
Min Temperature 37 °F 30 °F 9 °F (1958)
Degree Days  
Heating Degree Days 24    
Moisture  
Dew Point 39 °F    
Average Humidity 93    
Maximum Humidity 100    
Minimum Humidity 87    
Precipitation  
Precipitation 0.00 in - - ()
Sea Level Pressure  
Sea Level Pressure 30.56 in    
Wind  
Wind Speed 8 mph (SE)    
Max Wind Speed 13 mph    
Max Gust Speed -    
Visibility 10 miles    
Events      
Averages and records for this station are not official NWS values.
T = Trace of Precipitation, MM = Missing Value Source: NWS Daily Summary

Daily Weather History Graph

Daily Weather History Graph

Search for Another Location

Airport or City:

Astronomy

Dec. 06, 2017 Rise Set
Actual Time 7:58 AM AKST 3:17 PM AKST
Civil Twilight 7:12 AM AKST 4:03 PM AKST
Nautical Twilight 6:25 AM AKST 4:50 PM AKST
Astronomical Twilight 5:40 AM AKST 5:35 PM AKST
Moon 7:16 PM AKST (12/6) 10:44 AM AKST (12/6)
Length of Visible Light 8h 50m
Length of Day
7h 19m
Waning Gibbous, 85% of the Moon is Illuminated
Dec 6
Waning Gibbous
Dec 9
Last Quarter
Dec 17
New
Dec 26
First Quarter
Jan 1
Full

Hourly Weather History & Observations

Time (AKST) Temp. Windchill Dew Point Humidity Pressure Visibility Wind Dir Wind Speed Gust Speed Precip Events Conditions
12:05 AM 44.1 °F 40.8 °F 43.0 °F 96% 30.61 in 8.0 mi SE 5.8 mph - N/A   Overcast
12:29 AM 44.1 °F 39.5 °F 43.0 °F 96% 30.60 in 10.0 mi SSE 8.1 mph - N/A   Overcast
12:36 AM 44.1 °F 40.1 °F 43.0 °F 96% 30.60 in 10.0 mi SSE 6.9 mph - N/A   Overcast
12:53 AM 44.1 °F 40.1 °F 43.0 °F 96% 30.60 in 10.0 mi SSE 6.9 mph - N/A   Overcast
1:53 AM 45.0 °F 40.1 °F 42.1 °F 90% 30.60 in 10.0 mi SSE 9.2 mph - N/A   Overcast
2:31 AM 44.1 °F 40.8 °F 41.0 °F 89% 30.59 in 10.0 mi SSE 5.8 mph - N/A   Scattered Clouds
2:53 AM 44.1 °F 42.5 °F 41.0 °F 89% 30.59 in 10.0 mi SE 3.5 mph - N/A   Clear
3:53 AM 41.0 °F 35.8 °F 39.9 °F 96% 30.59 in 10.0 mi ESE 8.1 mph - N/A   Clear
4:53 AM 41.0 °F 36.4 °F 39.0 °F 93% 30.59 in 10.0 mi SE 6.9 mph - N/A   Clear
5:53 AM 39.9 °F 33.9 °F 39.0 °F 97% 30.59 in 10.0 mi SSE 9.2 mph - N/A   Clear
6:00 AM 39.9 °F 32.9 °F 37.9 °F 93% 30.58 in 10.0 mi SE 11.5 mph - N/A   Clear
6:53 AM 39.2 °F 33.6 °F 37.4 °F 93% 30.59 in 10.0 mi SE 8.1 mph - N/A   Partly Cloudy
7:53 AM 39.2 °F 32.5 °F 37.4 °F 93% 30.60 in 10.0 mi SE 10.4 mph - N/A   Partly Cloudy
8:53 AM 37.4 °F 31.4 °F 37.4 °F 100% 30.59 in 10.0 mi SE 8.1 mph - N/A   Partly Cloudy
9:53 AM 39.2 °F 31.6 °F 37.4 °F 93% 30.60 in 10.0 mi ESE 12.7 mph - N/A   Partly Cloudy
10:53 AM 41.0 °F 35.2 °F 39.2 °F 93% 30.59 in 10.0 mi SE 9.2 mph - N/A   Clear
11:53 AM 41.0 °F 35.2 °F 39.2 °F 93% 30.58 in 10.0 mi SE 9.2 mph - N/A   Clear
12:53 PM 41.0 °F 34.7 °F 37.4 °F 87% 30.56 in 10.0 mi SE 10.4 mph - N/A   Clear
1:53 PM 41.0 °F 35.2 °F 39.2 °F 93% 30.54 in 10.0 mi ESE 9.2 mph - N/A   Clear
2:53 PM 41.0 °F 34.7 °F 37.4 °F 87% 30.54 in 10.0 mi SE 10.4 mph - N/A   Clear
3:53 PM 39.2 °F 33.0 °F 37.4 °F 93% 30.53 in 10.0 mi SSE 9.2 mph - N/A   Clear
4:53 PM 39.2 °F 32.5 °F 37.4 °F 93% 30.53 in 10.0 mi SSE 10.4 mph - N/A   Clear
5:53 PM 37.4 °F 29.8 °F 35.6 °F 93% 30.52 in 10.0 mi SE 11.5 mph - N/A   Clear
6:53 PM 39.2 °F 32.5 °F 37.4 °F 93% 30.51 in 10.0 mi SE 10.4 mph - N/A   Clear
7:53 PM 39.0 °F 31.8 °F 36.0 °F 89% 30.49 in 10.0 mi ESE 11.5 mph - N/A   Clear
8:53 PM 39.2 °F 33.0 °F 35.6 °F 87% 30.49 in 10.0 mi ESE 9.2 mph - N/A   Clear
9:53 PM 39.0 °F 31.8 °F 37.0 °F 93% 30.47 in 10.0 mi SE 11.5 mph - N/A   Clear
10:53 PM 37.9 °F 30.9 °F 36.0 °F 93% 30.46 in 10.0 mi SE 10.4 mph - N/A   Clear
11:53 PM 37.9 °F 30.5 °F 35.1 °F 89% 30.45 in 10.0 mi SE 11.5 mph - N/A   Clear